Regional Weather Roundup
Issued by NWS

Home | Current Version | Previous Version | Graphics & Text | Print | Product List | Glossary On
Versions: 1 2 3 4 5 6 7 8 9 10 11 12 13 14 15 16 17 18 19 20 21 22 23 24 25 26 27 28 29 30 31 32 33 34 35 36 37 38 39 40 41 42 43 44 45 46 47 48 49 50
000
ASUS43 KBIS 230710
RWRND

NORTH DAKOTA REGIONAL WEATHER ROUNDUP
NATIONAL WEATHER SERVICE BISMARCK ND
200 AM CDT SAT JUL 23 2016

NOTE: "FAIR" INDICATES FEW OR NO CLOUDS BELOW 12,000 FEET WITH NO
SIGNIFICANT WEATHER AND/OR OBSTRUCTIONS TO VISIBILITY.


NDZ001>003-009>011-017-230800-
NORTHWEST NORTH DAKOTA

CITY           SKY/WX    TMP DP  RH WIND       PRES   REMARKS
WILLISTON      CLOUDY    72  62  71 SE17G28   29.81F
MINOT          PTCLDY    75  63  66 SW5       29.89S
MINOT AFB      CLOUDY    70  63  77 E6        29.87F
$$

NDZ018>021-031>035-040>046-230800-
SOUTHWEST NORTH DAKOTA

CITY           SKY/WX    TMP DP  RH WIND       PRES   REMARKS
BISMARCK       CLOUDY    70  63  78 SE15G25   29.89F THUNDER
DICKINSON      CLOUDY    63  58  83 SE15      29.86F
GARRISON         N/A     67  64  90 NW10      29.90R
HETTINGER ARPT PTCLDY    67  60  78 SE21G29   29.91F
$$

NDZ004>008-012>016-024-026-027-054-230800-
NORTHEAST NORTH DAKOTA

CITY           SKY/WX    TMP DP  RH WIND       PRES   REMARKS
GRAND FORKS    CLOUDY    73  65  75 E5        29.95S
GRND FRKS AFB  CLOUDY    70  66  87 E5        29.94F
DEVILS LAKE    CLOUDY    71  65  81 E9        29.94F
$$

NDZ022-023-025-028>030-036>039-047>053-230800-
SOUTHEAST NORTH DAKOTA

CITY           SKY/WX    TMP DP  RH WIND       PRES   REMARKS
FARGO          CLOUDY    74  65  73 E9        29.93F
JAMESTOWN      CLOUDY    70  62  76 NE3       29.89F
$$





USA.gov is the U.S. government's official web portal to all federal, state and local government web resources and services.